SAS2595 EKCH-BIKF

Flight info

Callsign SAS2595
Flight time 3h 14m
Altitude 34000
Route GOLGA DCT RETKA DCT IDIPI DCT VALDI DCT 63N010W DCT ING DCT NASBU NASBU5N
Aircraft A320/M-SDE3FGHIRWY/LB1

Departure

Time 2026-05-04 13:13
Airport Copenhagen Kastrup Airport (EKCH)

Arrival

Time 2026-05-04 16:28
Airport Keflavik International Airport (BIKF)
Time Latitude Longitude Altitude Speed Heading
2026-05-04 12:50 55.62713 12.64466 24 ft 0 kts 102°
2026-05-04 13:01 55.62715 12.64444 24 ft 2 kts 102°
2026-05-04 13:02 55.62717 12.64414 24 ft 3 kts 73°
2026-05-04 13:02 55.62709 12.64386 24 ft 3 kts 46°
2026-05-04 13:02 55.62697 12.64364 25 ft 2 kts 46°
2026-05-04 13:02 55.62685 12.64341 24 ft 2 kts 47°
2026-05-04 13:03 55.62677 12.64325 26 ft 3 kts 37°
2026-05-04 13:03 55.62666 12.64313 25 ft 2 kts 25°
2026-05-04 13:03 55.62651 12.64300 26 ft 2 kts 25°
2026-05-04 13:03 55.62636 12.64287 29 ft 2 kts 28°
2026-05-04 13:04 55.62621 12.64272 26 ft 2 kts 48°
2026-05-04 13:04 55.62609 12.64250 25 ft 2 kts 52°
2026-05-04 13:04 55.62601 12.64223 25 ft 2 kts 86°
2026-05-04 13:04 55.62603 12.64193 28 ft 2 kts 120°
2026-05-04 13:05 55.62611 12.64169 25 ft 2 kts 122°
2026-05-04 13:05 55.62620 12.64144 27 ft 2 kts 122°
2026-05-04 13:05 55.62626 12.64129 26 ft 0 kts 122°
2026-05-04 13:07 55.62619 12.64150 27 ft 5 kts 119°
2026-05-04 13:07 55.62596 12.64220 25 ft 7 kts 124°
2026-05-04 13:07 55.62565 12.64303 25 ft 9 kts 123°
2026-05-04 13:08 55.62529 12.64401 24 ft 10 kts 123°
2026-05-04 13:08 55.62496 12.64488 24 ft 4 kts 125°
2026-05-04 13:08 55.62479 12.64497 24 ft 0 kts 181°
2026-05-04 13:09 55.62463 12.64490 24 ft 6 kts 197°
2026-05-04 13:09 55.62401 12.64455 24 ft 12 kts 198°
2026-05-04 13:09 55.62316 12.64414 24 ft 13 kts 193°
2026-05-04 13:09 55.62218 12.64360 21 ft 16 kts 204°
2026-05-04 13:10 55.62115 12.64275 23 ft 17 kts 204°
2026-05-04 13:10 55.62001 12.64179 24 ft 19 kts 206°
2026-05-04 13:10 55.61913 12.64106 25 ft 11 kts 205°
2026-05-04 13:10 55.61838 12.64070 24 ft 11 kts 178°
2026-05-04 13:11 55.61772 12.64080 24 ft 6 kts 176°
2026-05-04 13:11 55.61726 12.64083 25 ft 7 kts 178°
2026-05-04 13:11 55.61671 12.64090 26 ft 8 kts 176°
2026-05-04 13:11 55.61623 12.64068 27 ft 7 kts 218°
2026-05-04 13:12 55.61616 12.64056 27 ft 0 kts 221°
2026-05-04 13:12 55.61612 12.64051 27 ft 2 kts 221°
2026-05-04 13:12 55.61566 12.63979 30 ft 24 kts 221°
2026-05-04 13:13 55.61265 12.63510 29 ft 88 kts 220°
2026-05-04 13:13 55.60668 12.62587 29 ft 137 kts 222°
2026-05-04 13:13 55.59849 12.61330 152 ft 164 kts 224°
2026-05-04 13:13 55.58966 12.60089 799 ft 161 kts 222°
2026-05-04 13:14 55.58089 12.58826 1394 ft 167 kts 225°
2026-05-04 13:14 55.57170 12.57370 1582 ft 188 kts 226°
2026-05-04 13:14 55.56250 12.55619 1816 ft 207 kts 244°
2026-05-04 13:14 55.55920 12.53069 2105 ft 224 kts 272°
2026-05-04 13:15 55.56396 12.50370 2555 ft 241 kts 305°
2026-05-04 13:15 55.57707 12.48472 3287 ft 249 kts 327°
2026-05-04 13:15 55.59216 12.46927 4116 ft 251 kts 327°
2026-05-04 13:15 55.60743 12.45372 4909 ft 256 kts 326°
2026-05-04 13:16 55.62292 12.43793 5755 ft 258 kts 326°
2026-05-04 13:16 55.63841 12.42213 6548 ft 261 kts 325°
2026-05-04 13:16 55.65425 12.40592 7279 ft 264 kts 325°
2026-05-04 13:16 55.67030 12.38947 7995 ft 268 kts 325°
2026-05-04 13:17 55.68658 12.37275 8703 ft 272 kts 324°
2026-05-04 13:17 55.70307 12.35578 9405 ft 275 kts 324°
2026-05-04 13:17 55.71978 12.33860 10071 ft 280 kts 324°
2026-05-04 13:17 55.73719 12.32057 10277 ft 301 kts 324°
2026-05-04 13:18 55.75592 12.30106 10407 ft 322 kts 325°
2026-05-04 13:18 55.77557 12.28063 10559 ft 340 kts 325°
2026-05-04 13:18 55.79629 12.25919 11036 ft 347 kts 325°
2026-05-04 13:18 55.81734 12.23751 11618 ft 351 kts 325°
2026-05-04 13:19 55.83856 12.21567 12222 ft 353 kts 325°
2026-05-04 13:19 55.85299 12.20078 12619 ft 356 kts 325°
2026-05-04 13:19 55.88151 12.17122 13408 ft 360 kts 324°
2026-05-04 13:19 55.90324 12.14858 13983 ft 362 kts 324°
2026-05-04 13:20 55.92507 12.12581 14540 ft 365 kts 324°
2026-05-04 13:20 55.93960 12.11064 14874 ft 366 kts 324°
2026-05-04 13:20 55.96166 12.08757 15392 ft 368 kts 324°
2026-05-04 13:20 55.99109 12.05674 16090 ft 372 kts 324°
2026-05-04 13:21 56.01348 12.03326 16627 ft 374 kts 324°
2026-05-04 13:21 56.02872 12.01727 17000 ft 376 kts 324°
2026-05-04 13:21 56.05105 11.99383 17534 ft 378 kts 324°
2026-05-04 13:21 56.07387 11.96982 18089 ft 381 kts 324°
2026-05-04 13:22 56.09676 11.94569 18589 ft 384 kts 324°
2026-05-04 13:22 56.11997 11.92123 18855 ft 385 kts 324°
2026-05-04 13:22 56.14308 11.89689 18915 ft 385 kts 324°
2026-05-04 13:22 56.16619 11.87252 18914 ft 385 kts 324°
2026-05-04 13:23 56.18898 11.84847 18918 ft 385 kts 324°
2026-05-04 13:23 56.21202 11.82409 18916 ft 385 kts 324°
2026-05-04 13:23 56.23517 11.79952 19087 ft 387 kts 324°
2026-05-04 13:23 56.25840 11.77475 19619 ft 389 kts 324°
2026-05-04 13:24 56.28172 11.74988 20100 ft 391 kts 324°
2026-05-04 13:24 56.30523 11.72479 20567 ft 393 kts 324°
2026-05-04 13:24 56.32885 11.69949 21000 ft 395 kts 323°
2026-05-04 13:25 56.37452 11.64475 21821 ft 397 kts 319°
2026-05-04 13:25 56.39702 11.61526 22223 ft 399 kts 319°
2026-05-04 13:25 56.41941 11.58534 22611 ft 401 kts 319°
2026-05-04 13:25 56.44194 11.55524 22989 ft 403 kts 319°
2026-05-04 13:26 56.46466 11.52517 23375 ft 405 kts 319°
2026-05-04 13:26 56.48729 11.49557 23697 ft 407 kts 320°
2026-05-04 13:26 56.51039 11.46555 24005 ft 409 kts 320°
2026-05-04 13:26 56.53357 11.43548 24307 ft 411 kts 320°
2026-05-04 13:27 56.55687 11.40523 24601 ft 412 kts 320°
2026-05-04 13:27 56.58024 11.37480 24894 ft 414 kts 320°
2026-05-04 13:27 56.60370 11.34420 25185 ft 416 kts 320°
2026-05-04 13:27 56.62723 11.31342 25486 ft 417 kts 320°
2026-05-04 13:28 56.65088 11.28240 25788 ft 419 kts 320°
2026-05-04 13:28 56.67444 11.25142 26201 ft 417 kts 320°
2026-05-04 13:28 56.69761 11.22091 26623 ft 416 kts 321°
2026-05-04 13:28 56.72105 11.19000 27039 ft 415 kts 321°
2026-05-04 13:29 56.74439 11.15913 27462 ft 414 kts 321°
2026-05-04 13:29 56.76771 11.12830 27888 ft 413 kts 321°
2026-05-04 13:29 56.79092 11.09758 28318 ft 412 kts 321°
2026-05-04 13:29 56.81406 11.06692 28748 ft 410 kts 322°
2026-05-04 13:30 56.83716 11.03627 29174 ft 409 kts 322°
2026-05-04 13:30 56.86019 11.00564 29608 ft 408 kts 322°
2026-05-04 13:30 56.88314 10.97507 30032 ft 407 kts 322°
2026-05-04 13:30 56.90571 10.94498 30384 ft 406 kts 322°
2026-05-04 13:31 56.92852 10.91451 30740 ft 405 kts 322°
2026-05-04 13:31 56.95128 10.88407 31089 ft 405 kts 322°
2026-05-04 13:31 56.97399 10.85363 31446 ft 404 kts 322°
2026-05-04 13:31 56.99666 10.82315 31797 ft 404 kts 321°
2026-05-04 13:32 57.01928 10.79265 32150 ft 403 kts 321°
2026-05-04 13:32 57.04192 10.76214 32497 ft 403 kts 321°
2026-05-04 13:32 57.06453 10.73163 32844 ft 402 kts 321°
2026-05-04 13:32 57.08681 10.70151 33184 ft 402 kts 321°
2026-05-04 13:33 57.10935 10.67105 33515 ft 401 kts 321°
2026-05-04 13:33 57.13185 10.64058 33815 ft 401 kts 321°
2026-05-04 13:33 57.17724 10.57885 33900 ft 411 kts 321°
2026-05-04 13:34 57.22388 10.51509 33898 ft 420 kts 321°
2026-05-04 13:34 57.27064 10.45113 33897 ft 420 kts 321°
2026-05-04 13:35 57.34120 10.35457 33900 ft 420 kts 320°
2026-05-04 13:36 57.38809 10.28989 33901 ft 419 kts 320°
2026-05-04 13:36 57.43482 10.22530 33909 ft 419 kts 320°
2026-05-04 13:37 57.48124 10.16091 33908 ft 419 kts 320°
2026-05-04 13:37 57.52789 10.09586 33914 ft 418 kts 320°
2026-05-04 13:38 57.57452 10.03062 33913 ft 418 kts 320°
2026-05-04 13:38 57.62080 9.96585 33917 ft 418 kts 320°
2026-05-04 13:39 57.66728 9.90061 33906 ft 418 kts 319°
2026-05-04 13:39 57.71380 9.83505 33906 ft 418 kts 319°
2026-05-04 13:40 57.75994 9.76980 33903 ft 418 kts 319°
2026-05-04 13:40 57.80636 9.70388 33895 ft 417 kts 319°
2026-05-04 13:41 57.85265 9.63786 33900 ft 417 kts 319°
2026-05-04 13:41 57.89861 9.57215 33894 ft 417 kts 319°
2026-05-04 13:42 57.96793 9.47277 33892 ft 417 kts 318°
2026-05-04 13:42 58.00854 9.39664 33887 ft 409 kts 303°
2026-05-04 13:43 58.04265 9.31141 33883 ft 409 kts 304°
2026-05-04 13:43 58.07706 9.22556 33886 ft 409 kts 304°
2026-05-04 13:44 58.11127 9.13977 33883 ft 408 kts 303°
2026-05-04 13:44 58.14521 9.05436 33884 ft 408 kts 303°
2026-05-04 13:45 58.17926 8.96825 33883 ft 407 kts 303°
2026-05-04 13:45 58.21315 8.88223 33882 ft 407 kts 303°
2026-05-04 13:46 58.24698 8.79626 33878 ft 406 kts 303°
2026-05-04 13:46 58.28066 8.71025 33880 ft 405 kts 303°
2026-05-04 13:47 58.31401 8.62462 33878 ft 404 kts 303°
2026-05-04 13:47 58.34745 8.53844 33882 ft 403 kts 303°
2026-05-04 13:48 58.38061 8.45296 33883 ft 403 kts 303°
2026-05-04 13:48 58.41382 8.36711 33884 ft 402 kts 302°
2026-05-04 13:49 58.44691 8.28103 33882 ft 401 kts 302°
2026-05-04 13:49 58.47984 8.19494 33883 ft 401 kts 302°
2026-05-04 13:50 58.51265 8.10878 33882 ft 400 kts 302°
2026-05-04 13:50 58.54523 8.02308 33881 ft 400 kts 302°
2026-05-04 13:51 58.57801 7.93669 33878 ft 400 kts 302°
2026-05-04 13:51 58.61070 7.85018 33879 ft 400 kts 302°
2026-05-04 13:52 58.65961 7.72011 33876 ft 400 kts 302°
2026-05-04 13:53 58.69189 7.63368 33876 ft 400 kts 302°
2026-05-04 13:53 58.72436 7.54656 33880 ft 401 kts 301°
2026-05-04 13:54 58.77300 7.41532 33880 ft 402 kts 301°
2026-05-04 13:55 58.82172 7.28323 33881 ft 403 kts 301°
2026-05-04 13:55 58.87040 7.15078 33883 ft 403 kts 301°
2026-05-04 13:56 58.90278 7.06215 33887 ft 403 kts 301°
2026-05-04 13:57 58.95099 6.92927 33895 ft 404 kts 301°
2026-05-04 13:58 59.01689 6.75253 33910 ft 404 kts 302°
2026-05-04 13:58 59.06633 6.62106 33910 ft 402 kts 302°
2026-05-04 13:59 59.09912 6.53301 33921 ft 401 kts 301°
2026-05-04 14:00 59.14801 6.40095 33925 ft 399 kts 301°
2026-05-04 14:00 59.19615 6.26995 33914 ft 397 kts 301°
2026-05-04 14:01 59.22821 6.18246 33914 ft 395 kts 301°
2026-05-04 14:02 59.27602 6.05145 33909 ft 394 kts 301°
2026-05-04 14:02 59.30765 5.96418 33906 ft 392 kts 301°
2026-05-04 14:03 59.33917 5.87696 33905 ft 391 kts 301°
2026-05-04 14:03 59.37063 5.78977 33913 ft 391 kts 301°
2026-05-04 14:04 59.41730 5.65972 33913 ft 389 kts 301°
2026-05-04 14:04 59.44835 5.57252 33901 ft 389 kts 300°
2026-05-04 14:05 59.49473 5.44175 33911 ft 388 kts 300°
2026-05-04 14:06 59.52561 5.35455 33904 ft 388 kts 300°
2026-05-04 14:06 59.55622 5.26777 33905 ft 388 kts 300°
2026-05-04 14:07 59.58696 5.18029 33892 ft 387 kts 300°
2026-05-04 14:07 59.61242 5.10763 33892 ft 387 kts 300°
2026-05-04 14:08 59.64299 5.02005 33895 ft 386 kts 300°
2026-05-04 14:08 59.67347 4.93229 33897 ft 386 kts 300°
2026-05-04 14:09 59.71903 4.80056 33902 ft 386 kts 300°
2026-05-04 14:10 59.76419 4.66920 33912 ft 385 kts 300°
2026-05-04 14:10 59.79435 4.58113 33911 ft 385 kts 300°
2026-05-04 14:11 59.82440 4.49289 33917 ft 385 kts 300°
2026-05-04 14:11 59.86910 4.36112 33924 ft 384 kts 300°
2026-05-04 14:12 59.89895 4.27265 33930 ft 384 kts 300°
2026-05-04 14:13 59.94361 4.14003 33940 ft 384 kts 300°
2026-05-04 14:13 59.97327 4.05148 33944 ft 383 kts 300°
2026-05-04 14:14 60.00263 3.96352 33946 ft 382 kts 300°
2026-05-04 14:14 60.04667 3.83052 33943 ft 381 kts 300°
2026-05-04 14:15 60.10491 3.65379 33947 ft 380 kts 299°
2026-05-04 14:16 60.14845 3.52056 33943 ft 380 kts 299°
2026-05-04 14:17 60.19174 3.38798 33939 ft 380 kts 299°
2026-05-04 14:18 60.23496 3.25443 33941 ft 379 kts 299°
2026-05-04 14:19 60.29217 3.07614 33943 ft 379 kts 299°
2026-05-04 14:19 60.32083 2.98659 33930 ft 379 kts 299°
2026-05-04 14:20 60.34942 2.89683 33941 ft 379 kts 299°
2026-05-04 14:20 60.37776 2.80754 33940 ft 379 kts 298°
2026-05-04 14:21 60.42036 2.67250 33942 ft 379 kts 299°
2026-05-04 14:21 60.44871 2.58241 33943 ft 379 kts 298°
2026-05-04 14:22 60.47672 2.49279 33949 ft 378 kts 298°
2026-05-04 14:22 60.50486 2.40253 33956 ft 378 kts 298°
2026-05-04 14:23 60.54695 2.26691 33964 ft 378 kts 298°
2026-05-04 14:24 60.57473 2.17704 33968 ft 377 kts 298°
2026-05-04 14:24 60.60248 2.08638 33975 ft 377 kts 298°
2026-05-04 14:25 60.63018 1.99586 33975 ft 376 kts 298°
2026-05-04 14:25 60.67153 1.86049 33975 ft 376 kts 298°
2026-05-04 14:26 60.69904 1.76979 33972 ft 375 kts 298°
2026-05-04 14:26 60.72630 1.67947 33976 ft 375 kts 298°
2026-05-04 14:27 60.75367 1.58850 33977 ft 375 kts 298°
2026-05-04 14:27 60.78100 1.49726 33977 ft 375 kts 298°
2026-05-04 14:28 60.80812 1.40672 33981 ft 375 kts 298°
2026-05-04 14:28 60.83534 1.31523 33980 ft 375 kts 298°
2026-05-04 14:29 60.88933 1.13218 33984 ft 375 kts 298°
2026-05-04 14:30 60.91635 1.04033 33988 ft 375 kts 298°
2026-05-04 14:31 60.95662 0.90226 33995 ft 375 kts 298°
2026-05-04 14:32 61.01013 0.71835 33998 ft 375 kts 298°
2026-05-04 14:32 61.03682 0.62585 33993 ft 375 kts 297°
2026-05-04 14:33 61.06325 0.53375 33991 ft 375 kts 297°
2026-05-04 14:33 61.08983 0.44104 33994 ft 375 kts 297°
2026-05-04 14:34 61.11628 0.34813 33994 ft 374 kts 297°
2026-05-04 14:34 61.14245 0.25580 33999 ft 374 kts 297°
2026-05-04 14:35 61.16874 0.16261 34000 ft 374 kts 297°
2026-05-04 14:35 61.19508 0.06928 34000 ft 374 kts 297°
2026-05-04 14:36 61.22035 -0.02449 34005 ft 373 kts 295°
2026-05-04 14:36 61.24301 -0.12136 34006 ft 372 kts 293°
2026-05-04 14:37 61.26451 -0.21924 34005 ft 372 kts 293°
2026-05-04 14:37 61.28608 -0.31717 34007 ft 372 kts 293°
2026-05-04 14:38 61.30771 -0.41447 34004 ft 372 kts 293°
2026-05-04 14:38 61.32948 -0.51214 34003 ft 372 kts 293°
2026-05-04 14:39 61.35119 -0.60990 33999 ft 371 kts 293°
2026-05-04 14:39 61.37265 -0.70729 34004 ft 371 kts 293°
2026-05-04 14:40 61.40487 -0.85437 34004 ft 371 kts 293°
2026-05-04 14:40 61.42627 -0.95255 34005 ft 371 kts 293°
2026-05-04 14:41 61.44741 -1.05019 34004 ft 371 kts 293°
2026-05-04 14:42 61.48982 -1.24732 34004 ft 371 kts 292°
2026-05-04 14:42 61.51072 -1.34534 34010 ft 371 kts 292°
2026-05-04 14:43 61.53172 -1.44416 34012 ft 371 kts 292°
2026-05-04 14:43 61.55270 -1.54303 34012 ft 371 kts 292°
2026-05-04 14:44 61.57360 -1.64208 34016 ft 371 kts 292°
2026-05-04 14:44 61.59428 -1.74069 34019 ft 371 kts 292°
2026-05-04 14:45 61.61507 -1.84021 34021 ft 371 kts 292°
2026-05-04 14:45 61.63575 -1.93972 34020 ft 371 kts 292°
2026-05-04 14:46 61.65621 -2.03884 34022 ft 372 kts 292°
2026-05-04 14:46 61.67675 -2.13879 34019 ft 372 kts 292°
2026-05-04 14:47 61.69728 -2.23910 34024 ft 373 kts 292°
2026-05-04 14:47 61.71774 -2.33964 34019 ft 373 kts 292°
2026-05-04 14:48 61.73815 -2.44052 34019 ft 374 kts 292°
2026-05-04 14:48 61.75857 -2.54156 34027 ft 374 kts 292°
2026-05-04 14:49 61.77874 -2.64235 34023 ft 375 kts 292°
2026-05-04 14:49 61.79901 -2.74400 34033 ft 375 kts 291°
2026-05-04 14:50 61.81928 -2.84584 34030 ft 375 kts 291°
2026-05-04 14:50 61.83950 -2.94795 34035 ft 376 kts 291°
2026-05-04 14:51 61.85944 -3.04952 34034 ft 375 kts 291°
2026-05-04 14:51 61.87950 -3.15195 34035 ft 375 kts 291°
2026-05-04 14:52 61.89934 -3.25382 34035 ft 375 kts 291°
2026-05-04 14:52 61.91926 -3.35644 34029 ft 375 kts 291°
2026-05-04 14:53 61.93898 -3.45863 34032 ft 376 kts 291°
2026-05-04 14:53 61.95869 -3.56160 34029 ft 376 kts 291°
2026-05-04 14:54 61.97817 -3.66427 34032 ft 376 kts 291°
2026-05-04 14:54 61.99778 -3.76766 34039 ft 377 kts 291°
2026-05-04 14:55 62.01740 -3.87129 34041 ft 377 kts 291°
2026-05-04 14:55 62.03680 -3.97438 34043 ft 377 kts 291°
2026-05-04 14:56 62.05626 -4.07843 34045 ft 378 kts 291°
2026-05-04 14:56 62.07560 -4.18279 34043 ft 378 kts 291°
2026-05-04 14:57 62.09477 -4.28677 34046 ft 379 kts 291°
2026-05-04 14:57 62.11402 -4.39160 34050 ft 379 kts 291°
2026-05-04 14:58 62.13324 -4.49671 34052 ft 379 kts 291°
2026-05-04 14:58 62.14915 -4.58424 34047 ft 380 kts 291°
2026-05-04 14:59 62.17142 -4.70760 34053 ft 380 kts 291°
2026-05-04 15:00 62.19994 -4.86594 34055 ft 381 kts 291°
2026-05-04 15:00 62.21874 -4.97160 34054 ft 381 kts 291°
2026-05-04 15:01 62.24698 -5.13110 34056 ft 381 kts 291°
2026-05-04 15:01 62.26264 -5.21961 34059 ft 381 kts 291°
2026-05-04 15:02 62.28122 -5.32561 34059 ft 381 kts 291°
2026-05-04 15:02 62.29979 -5.43249 34060 ft 382 kts 290°
2026-05-04 15:03 62.31828 -5.53974 34062 ft 382 kts 290°
2026-05-04 15:03 62.33660 -5.64628 34066 ft 382 kts 291°
2026-05-04 15:04 62.35502 -5.75387 34053 ft 382 kts 290°
2026-05-04 15:04 62.37335 -5.86135 34059 ft 382 kts 290°
2026-05-04 15:05 62.39153 -5.96889 34060 ft 381 kts 290°
2026-05-04 15:05 62.40955 -6.07573 34071 ft 381 kts 290°
2026-05-04 15:06 62.42759 -6.18357 34074 ft 381 kts 290°
2026-05-04 15:07 62.45437 -6.34524 34060 ft 381 kts 290°
2026-05-04 15:07 62.47198 -6.45242 34065 ft 381 kts 290°
2026-05-04 15:08 62.48968 -6.56043 34057 ft 381 kts 290°
2026-05-04 15:08 62.50734 -6.66848 34055 ft 380 kts 290°
2026-05-04 15:09 62.52484 -6.77667 34056 ft 380 kts 290°
2026-05-04 15:09 62.54223 -6.88479 34052 ft 380 kts 290°
2026-05-04 15:10 62.56804 -7.04651 34050 ft 380 kts 290°
2026-05-04 15:11 62.57663 -7.10068 34043 ft 380 kts 290°
2026-05-04 15:11 62.61276 -7.32911 34053 ft 379 kts 290°
2026-05-04 15:12 62.62969 -7.43761 34042 ft 379 kts 289°
2026-05-04 15:12 62.64639 -7.54556 34042 ft 379 kts 289°
2026-05-04 15:13 62.66318 -7.65413 34052 ft 379 kts 289°
2026-05-04 15:13 62.67988 -7.76306 34051 ft 379 kts 289°
2026-05-04 15:14 62.69646 -7.87224 34062 ft 379 kts 289°
2026-05-04 15:14 62.71286 -7.98103 34062 ft 380 kts 289°
2026-05-04 15:15 62.72934 -8.09060 34068 ft 380 kts 289°
2026-05-04 15:15 62.74568 -8.20018 34070 ft 380 kts 289°
2026-05-04 15:16 62.77007 -8.36430 34082 ft 380 kts 289°
2026-05-04 15:17 62.79432 -8.52945 34081 ft 380 kts 289°
2026-05-04 15:17 62.81826 -8.69395 34083 ft 379 kts 289°
2026-05-04 15:18 62.83411 -8.80390 34089 ft 379 kts 289°
2026-05-04 15:19 62.85768 -8.96841 34089 ft 378 kts 289°
2026-05-04 15:19 62.88114 -9.13368 34096 ft 378 kts 289°
2026-05-04 15:20 62.89401 -9.22512 34095 ft 377 kts 289°
2026-05-04 15:20 62.90941 -9.33521 34091 ft 377 kts 289°
2026-05-04 15:21 62.92467 -9.44534 34097 ft 377 kts 288°
2026-05-04 15:22 62.94727 -9.60960 34092 ft 376 kts 288°
2026-05-04 15:22 62.96971 -9.77455 34095 ft 375 kts 288°
2026-05-04 15:23 62.98449 -9.88384 34097 ft 375 kts 288°
2026-05-04 15:23 62.99919 -9.99387 34099 ft 374 kts 288°
2026-05-04 15:24 63.03103 -10.21175 34103 ft 373 kts 289°
2026-05-04 15:25 63.04708 -10.31981 34107 ft 373 kts 289°
2026-05-04 15:26 63.07068 -10.48326 34104 ft 373 kts 289°
2026-05-04 15:26 63.09413 -10.64706 34106 ft 373 kts 289°
2026-05-04 15:27 63.11731 -10.81026 34110 ft 372 kts 288°
2026-05-04 15:28 63.14038 -10.97418 34114 ft 372 kts 288°
2026-05-04 15:29 63.16328 -11.13829 34108 ft 372 kts 288°
2026-05-04 15:30 63.21555 -11.52066 34113 ft 372 kts 288°
2026-05-04 15:31 63.23780 -11.68551 34112 ft 371 kts 288°
2026-05-04 15:32 63.27429 -11.96031 34119 ft 371 kts 287°
2026-05-04 15:34 63.31023 -12.23548 34124 ft 371 kts 287°
2026-05-04 15:34 63.33152 -12.40135 34125 ft 371 kts 287°
2026-05-04 15:35 63.35260 -12.56665 34130 ft 371 kts 287°
2026-05-04 15:36 63.37365 -12.73282 34133 ft 371 kts 287°
2026-05-04 15:36 63.38752 -12.84363 34132 ft 371 kts 287°
2026-05-04 15:37 63.40130 -12.95470 34130 ft 371 kts 287°
2026-05-04 15:37 63.41484 -13.06517 34129 ft 371 kts 287°
2026-05-04 15:38 63.42844 -13.17651 34127 ft 371 kts 287°
2026-05-04 15:38 63.44195 -13.28790 34132 ft 372 kts 286°
2026-05-04 15:39 63.45539 -13.39959 34134 ft 372 kts 286°
2026-05-04 15:40 63.47540 -13.56679 34136 ft 372 kts 286°
2026-05-04 15:40 63.48866 -13.67881 34140 ft 372 kts 286°
2026-05-04 15:41 63.50180 -13.79111 34150 ft 372 kts 286°
2026-05-04 15:41 63.51484 -13.90286 34147 ft 372 kts 286°
2026-05-04 15:42 63.52792 -14.01536 34156 ft 373 kts 286°
2026-05-04 15:42 63.54077 -14.12791 34158 ft 373 kts 286°
2026-05-04 15:43 63.55362 -14.24075 34156 ft 373 kts 286°
2026-05-04 15:43 63.56623 -14.35279 34164 ft 373 kts 285°
2026-05-04 15:44 63.57896 -14.46587 34161 ft 373 kts 286°
2026-05-04 15:44 63.59151 -14.57887 34165 ft 373 kts 285°
2026-05-04 15:45 63.60396 -14.69197 34162 ft 373 kts 285°
2026-05-04 15:45 63.61632 -14.80519 34165 ft 373 kts 285°
2026-05-04 15:46 63.62862 -14.91777 34162 ft 373 kts 285°
2026-05-04 15:46 63.64089 -15.03129 34168 ft 373 kts 285°
2026-05-04 15:47 63.65296 -15.14480 34165 ft 373 kts 285°
2026-05-04 15:47 63.66502 -15.25852 34166 ft 373 kts 285°
2026-05-04 15:48 63.67687 -15.37167 34169 ft 373 kts 285°
2026-05-04 15:48 63.69460 -15.54254 34168 ft 373 kts 285°
2026-05-04 15:49 63.70632 -15.65658 34178 ft 373 kts 285°
2026-05-04 15:49 63.71799 -15.77058 34170 ft 373 kts 285°
2026-05-04 15:50 63.72947 -15.88399 34173 ft 373 kts 285°
2026-05-04 15:50 63.74092 -15.99825 34166 ft 373 kts 285°
2026-05-04 15:51 63.75228 -16.11263 34163 ft 373 kts 284°
2026-05-04 15:51 63.76352 -16.22717 34169 ft 373 kts 284°
2026-05-04 15:52 63.77465 -16.34119 34171 ft 373 kts 284°
2026-05-04 15:52 63.78577 -16.45587 34173 ft 373 kts 284°
2026-05-04 15:53 63.79673 -16.57072 34172 ft 373 kts 284°
2026-05-04 15:53 63.80566 -16.68664 34178 ft 375 kts 279°
2026-05-04 15:54 63.81159 -16.80325 34177 ft 375 kts 279°
2026-05-04 15:54 63.81751 -16.92065 34176 ft 375 kts 279°
2026-05-04 15:55 63.82334 -17.03808 34175 ft 375 kts 279°
2026-05-04 15:55 63.82904 -17.15563 34177 ft 375 kts 279°
2026-05-04 15:56 63.83468 -17.27331 34177 ft 375 kts 279°
2026-05-04 15:56 63.84018 -17.39049 34184 ft 375 kts 279°
2026-05-04 15:57 63.84558 -17.50836 34183 ft 376 kts 279°
2026-05-04 15:57 63.85086 -17.62562 34189 ft 376 kts 279°
2026-05-04 15:58 63.85606 -17.74374 34188 ft 376 kts 279°
2026-05-04 15:58 63.86119 -17.86181 34192 ft 376 kts 279°
2026-05-04 15:59 63.86628 -17.98003 34196 ft 376 kts 279°
2026-05-04 15:59 63.87129 -18.09821 34199 ft 376 kts 279°
2026-05-04 16:00 63.87609 -18.21564 34209 ft 376 kts 279°
2026-05-04 16:00 63.88077 -18.33398 34214 ft 376 kts 278°
2026-05-04 16:01 63.88542 -18.45261 34218 ft 376 kts 278°
2026-05-04 16:01 63.88999 -18.57080 34225 ft 376 kts 278°
2026-05-04 16:02 63.89447 -18.68909 34233 ft 376 kts 278°
2026-05-04 16:03 63.90102 -18.86645 34229 ft 376 kts 278°
2026-05-04 16:03 63.90523 -18.98399 34227 ft 376 kts 278°
2026-05-04 16:04 63.90932 -19.10275 34230 ft 376 kts 278°
2026-05-04 16:04 63.91327 -19.22103 34017 ft 371 kts 278°
2026-05-04 16:04 63.91516 -19.27863 33846 ft 359 kts 278°
2026-05-04 16:05 63.91697 -19.33434 33622 ft 349 kts 278°
2026-05-04 16:05 63.91877 -19.38898 33263 ft 343 kts 278°
2026-05-04 16:05 63.92166 -19.47799 32606 ft 335 kts 278°
2026-05-04 16:06 63.92333 -19.53059 32031 ft 335 kts 278°
2026-05-04 16:06 63.92841 -19.69212 29932 ft 342 kts 278°
2026-05-04 16:07 63.92999 -19.74518 29372 ft 339 kts 278°
2026-05-04 16:07 63.93461 -19.90414 27601 ft 334 kts 278°
2026-05-04 16:08 63.93614 -19.95698 26935 ft 335 kts 278°
2026-05-04 16:08 63.94059 -20.11556 25043 ft 335 kts 278°
2026-05-04 16:09 63.94342 -20.22131 23842 ft 335 kts 278°
2026-05-04 16:09 63.94611 -20.32699 22460 ft 335 kts 277°
2026-05-04 16:10 63.94072 -20.43288 21312 ft 338 kts 268°
2026-05-04 16:11 63.92959 -20.58313 20422 ft 316 kts 268°
2026-05-04 16:11 63.92599 -20.63290 19637 ft 323 kts 268°
2026-05-04 16:12 63.91465 -20.78830 17220 ft 339 kts 266°
2026-05-04 16:12 63.90256 -20.94794 14968 ft 335 kts 266°
2026-05-04 16:13 63.89475 -21.04770 13621 ft 307 kts 265°
2026-05-04 16:13 63.88755 -21.14007 12292 ft 288 kts 265°
2026-05-04 16:14 63.88090 -21.22642 11490 ft 272 kts 265°
2026-05-04 16:14 63.87441 -21.30975 10972 ft 264 kts 265°
2026-05-04 16:15 63.86467 -21.43299 10211 ft 265 kts 264°
2026-05-04 16:16 63.85819 -21.51482 9927 ft 266 kts 264°
2026-05-04 16:16 63.84829 -21.63845 9508 ft 265 kts 263°
2026-05-04 16:17 63.84157 -21.72065 9232 ft 265 kts 263°
2026-05-04 16:18 63.83154 -21.84311 8825 ft 264 kts 263°
2026-05-04 16:18 63.82816 -21.88401 8677 ft 264 kts 263°
2026-05-04 16:19 63.81789 -22.00620 7876 ft 262 kts 262°
2026-05-04 16:19 63.81108 -22.08701 7131 ft 264 kts 262°
2026-05-04 16:20 63.79400 -22.20657 5821 ft 269 kts 254°
2026-05-04 16:20 63.78180 -22.28640 5130 ft 267 kts 254°
2026-05-04 16:21 63.77232 -22.40576 4432 ft 256 kts 285°
2026-05-04 16:22 63.78401 -22.48161 3710 ft 252 kts 293°
2026-05-04 16:22 63.80411 -22.57688 3146 ft 197 kts 319°
2026-05-04 16:23 63.83921 -22.60549 2535 ft 182 kts 359°
2026-05-04 16:24 63.88345 -22.60549 1936 ft 137 kts 359°
2026-05-04 16:25 63.90214 -22.60549 1591 ft 132 kts 359°
2026-05-04 16:26 63.93885 -22.60528 767 ft 131 kts 359°
2026-05-04 16:26 63.96622 -22.60562 217 ft 130 kts 359°
2026-05-04 16:27 63.97899 -22.60557 178 ft 62 kts 360°
2026-05-04 16:28 63.98946 -22.60558 180 ft 39 kts
2026-05-04 16:28 63.99173 -22.60920 180 ft 18 kts 268°
2026-05-04 16:29 63.99224 -22.61999 180 ft 13 kts
2026-05-04 16:30 63.99324 -22.61818 180 ft 5 kts 88°
2026-05-04 16:31 63.99325 -22.61795 180 ft 0 kts 88°